{"data":{"norad_id":66116,"epoch":"2026-09-20T13:50:09.368448Z","epoch_age_seconds":93799,"freshness":"FRESH","line1":"1 66116U 25237C   26263.57649732  .00017110  00000+0  51624-3 0  9991","line2":"2 66116  53.1588 211.2017 0001470  85.0901 275.0269 15.34407539 52493","mean_motion":15.34407539,"eccentricity":0.000147,"inclination_deg":53.1588,"raan_deg":211.2017,"arg_perigee_deg":85.0901,"mean_anomaly_deg":275.0269,"bstar":0.00051624,"rev_number":5249,"period_min":93.847296979424,"perigee_km":461.67523258066,"apogee_km":463.6864330235,"semimajor_km":6840.8178328021,"source":"CELESTRAK","updated_at":"2026-09-21T09:00:35.806546Z"}}